Voltar ao catálogo

SL-12 DEB

LostHEO
NORAD 29027·DEBRIS·🇷🇺 Russia

Lançado Jul 30, 1992 de Baikonur Cosmodrome

Loading…

Próximas Passagens (próximas 24 horas)

TLE

ObsoletoSource: Space-Track

Época: Oct 8, 2010, 03:39 UTC

1 29027U 92047AP  10281.15271841 -.00000051  00000-0  10000-3 0  9994
2 29027 065.8033 359.5104 4132346 029.8299 313.2792 05.15125279116839

Acompanhe SL-12 DEB em tempo real com AllMySat

Download on the App Store